Погода Миллерово

Погода Миллерово : погода сейчас, прогноз погоды и архив. Всё, что Вы хотите узнать о погоде Миллерово!

Хотите узнать прогноз погоды Миллерово? Тогда Вам сюда: Погода Миллерово

Поиск расширенной информации на нашем сайте:

Другие новости

Новости СМИ2

Главная страница сайта

Новости сайта

03.07.2017

Напоминаем, что на нашем специализированном сайте Метеоцентр.Азия вы можете получить высокодетализированные автоматические прогнозы погоды по пунктам России, СНГ и мира в авиационном формате (включающие направление и скорость ветра, видимость, явления погоды, количество и форму облачности, нижнюю и верхнюю границу облачности).


Погода Миллерово - сегодня

Время (UTC), дата Ветер
(°,м/с) 
Видим.   Явления Облачность Т
(°С)
Тd
(°С)
f(%) Тe
(°С)
Pmin
(гПа)
dP
(гПа)
Po
(мм)
O2
(г/м3)
Тmin Tmax R s Состояние
почвы
15 17.10.17 290 (З) 10 км  {ливн. осадки}  8/8 600 м 
[Sc diur, vesp]
+9 +7.6 91 +8  1017.6  1.7  749  291    +12.7  0.0     
18 17.10.17 270 (З) 10 км  {ливн. осадки}  8/8 600 м 
[Sc diur, vesp]
+8.9 +8.4 97 +9  1018.4  0.9  750  291           
21 17.10.17 240 (ЮЗ) 2000 м  дымка  10/10 600 м 
[Sc]
+7.4 +7.3 99 +8  1020  1.4  751  293           
00 18.10.17 тихо ()   0500 м  туман  н/о 
+7.2 +7.1 99 +7  1021.3  1.3  752  294           
03 18.10.17 270 (З) 0500 м  слаб. морось{туман}  н/о 
+6.7 +6.7 100 +8  1022.2  0.8  752  295  +5    0.3    влажная 
06 18.10.17 220 (ЮЗ) 0050 м  слаб. морось{туман}  ?/?  
+7.3 +7.1 99 +8  1023  0.9  753  294           
09 18.10.17 230 (ЮЗ) 4000 м  в посл. час туман{морось}  9/9 200 м 
[St]
+10.2 +10.2 100 +11  1022.5  -0.3  753  291           
12 18.10.17 240 (ЮЗ) 10 км  {морось, туман}  ясно 
+15.8 +8.8 63 +16  1020.4  -1.7  752  285           
15 18.10.17 220 (ЮЗ) 10 км    3/0 верхняя 
[Ci fib]
+13.7 +8.8 72 +14  1019.6  -1  751  287    +16  0.3     
18 18.10.17 170 (Ю) 10 км    ясно 
+10.3 +8.7 90 +11  1020  0.2  751  290           
21 18.10.17 210 (ЮЗ) 10 км    ясно 
+9.8 +8.5 92 +10  1019.1  -0.9  750  290           
00 19.10.17 200 (Ю) 10 км    ясно 
+9 +8.2 95 +9  1018.8  -0.4  750  291           
03 19.10.17 220 (ЮЗ) 10 км    3/0 верхняя 
[Ci fib]
+7.9 +7.7 99 +8  1018.4  -0.4  750  292  +7.7        влажная 
06 19.10.17 230 (ЮЗ) 4000 м  дымка  3/0 верхняя 
[Ci sp]
+11.7 +9.7 88 +12  1018.1  -0.1  750  288           
09 19.10.17 250 (З) 10 км    3/0 верхняя 
[Ci sp]
+16.8 +10.2 65 +18  1017.1  -0.6  749  282           
12 19.10.17 240 (ЮЗ) 10 км    4/0 верхняя 
[Ci sp]
+19.6 +9.5 52 +21  1016.1  -0.8  749  280           
15 19.10.17 220 (ЮЗ) 10 км    10/0 верхняя 
[Ci]
+14.5 +10.5 77 +17  1016.5  749  284    +19.7       
18 19.10.17 260 (З) 10 км    10/10 600 м 
[Sc]
+14.1 +11.3 83 +18  1017.1  0.6  749  285           
21 19.10.17 270 (З) 10 км    10/10 600 м 
[Sc]
+12.7 +11 89 +17  1017.5  0.3  749  286           
00 20.10.17 050 (СВ) 2000 м  слаб. морось  10/10 200 м 
[St]
+11.9 +11.5 97 +16  1017.5  -0.1  749  287           
03 20.10.17 360 (С) 2000 м  слаб. морось  10/10 200 м 
[St]
+11.2 +11 99 +15  1017.9  0.4  749  288  +11.2    0.1     
06 20.10.17 050 (СВ) 0500 м  слаб. морось{туман}  ?/?  
+10.9 +10.7 99 +13  1018.7  0.8  750  289  +10.9         
09 20.10.17 030 (СВ) 2000 м  дымка{морось, туман}  10/10 100 м 
[St]
+11.6 +11 96 +14  1019.1  0.4  750  288           
12 20.10.17 070 (В) 4000 м  дымка{морось, туман}  10/10 200 м кучево-дожд. 
[Cb calv]
+12.1 +10.4 89 +14  1018.5  -0.5  750  287           
15 20.10.17 050 (СВ) 10 км  {ливн. осадки}  10/10 300 м кучево-дожд. 
[Cb calv]
+10.9 +8.2 83 +11  1019.2  0.6  750  289    +12.2  0.1     
Время (UTC), дата Ветер
(°,м/с) 
Видим.   Явления Облачность Т
(°С)
Тd
(°С)
f(%) Тe
(°С)
Pmin
(гПа)
dP
(гПа)
Po
(мм)
O2
(г/м3)
Тmin Tmax R s Состояние
почвы

Для получения пояснительной информации подведите курсор к названию столбца.

ПОГОДА Миллерово - архив

Всё, что Вы хотите узнать о погоде Миллерово - удобно и подробно!

Выберите нужную дату (начиная с 1 января 2015* года) и нажмите кнопку "Найти".
Будут отображены архивные сводки погоды по пункту Миллерово, начиная с указанной даты.


Отображать данные в формате CSV (для использования в таблицах Excel)


Внимание! Наш архив погоды предназначен исключительно для личного некоммерческого использования в познавательных целях. Если Вам необходимы официальные справки о состоянии погоды (для производственных, юридических, коммерческих и т.п. целей), обращайтесь в органы Росгидромета.

*Примечание: данная дата относится к архиву по метеостанциям СССР (Россия, СНГ, Балтия).
Архив по метеостанциям Зарубежной Европы и Азии (кроме Китая) хранится 10 дней, по другим регионам земного шара (Китай, Африка, Америка, Австралия, Океания) - 1 день.

Миллерово - район местоположения метеостанции


Название, широта, долгота, высота метеостанции:
Миллерово 48.9°ш. 40.4°д. 155 м над ур. моря [Российская Федерация]

Дополнительная информация

В oтличие oт бoльшинства пoгoдных сайтoв мы публикуем пoдрoбную метеoинфoрмацию в детальнoм прoфессиoнальнoм фoрмате.

Характеристики температуры и влажнoсти вoздуха измеряются на высoте 2 м в тени вдали oт зданий и деревьев.
Скoрoсть ветра измеряется на высoте 10 м (на урoвне рoста челoвека скoрoсть ветра ниже в 1.5-2 раза). Если метеoстанция нахoдится в гoрoде или в лесу, тo скoрoсть ветра занижена на 2-4 м/с пo сравнению с oткрытым местoм. Скoрoсть ветра над акватoриями крупных рек и oзёр, а также на вершинах хoлмoв на 2-5 м/с выше, чем в oбычных услoвиях.
Атмoсфернoе давление в разных тoчках местнoсти мoжет значительнo oтличаться oт давления на метеoстанции, в зависимoсти oт услoвий рельефа (при пoдъёме на 10 м давление пoнижается примернo на 1 мм рт.ст.).